{"data":{"norad_id":68612,"intl_designator":"2026-073L","name":"STARLINK-36386","alt_names":[],"object_type":"PAYLOAD","status":"ACTIVE","operator":null,"country":"US","launch_date":"2026-04-07","launch_site_code":"AFWTR","launch_vehicle":null,"mission":null,"orbit_class":"UNKNOWN","rcs_meters":null,"size_class":null,"mass_kg":null,"dimensions":null,"purposes":["comms"],"wikipedia_slug":null,"has_3d_model":false,"image_url":null,"decayed_at":null,"tle_current":{"epoch":"2026-05-25T04:00:03.998880Z","epoch_age_seconds":56679,"freshness":"FRESH","line1":"1 68612U 26073L   26145.16671295 -.00008244  00000+0 -15012-3 0  9997","line2":"2 68612  97.2857 344.6854 0001237 111.4438 265.3273 15.49180682  6011","mean_motion":15.49180682,"eccentricity":0.0001237,"inclination_deg":97.2857,"raan_deg":344.6854,"arg_perigee_deg":111.4438,"mean_anomaly_deg":265.3273,"bstar":-0.00015012,"rev_number":601,"period_min":92.95235970416,"perigee_km":418.28077825006,"apogee_km":419.96242002749,"semimajor_km":6797.2585991388,"source":"CELESTRAK","updated_at":"2026-05-25T13:38:21.968255Z"}}}